Preview of NWS' New Version of Forecast
This preview is not operational and should not be used for support decisions.

Regional Weather Roundup (RWR)

Issued by National Weather Service (NWS)

                            
000
ASCA42 TJSJ 200010
RWRPR 
PUERTO RICO/U.S. VIRGIN ISLANDS HOURLY WEATHER ROUNDUP
NATIONAL WEATHER SERVICE SAN JUAN PR
800 PM AST MON AUG 19 2019

PRZ001>002-007>008-010-200100-
PUERTO RICO
  
CITY           SKY/WX    TMP DP  RH WIND       PRES   REMARKS
SAN JUAN LMM   PTCLDY    82  79  89 E10       30.01R HX  93           
AGUADILLA      CLEAR     77  75  94 E5        30.01R                  
CEIBA          PTCLDY    82  77  83 NE7       30.02R HX  91           
$$

VIZ001>002-200100-
U.S. VIRGIN ISLANDS
  
CITY           SKY/WX    TMP DP  RH WIND       PRES   REMARKS
CHARLOTTE AMA  PTCLDY    82  79  89 E12       30.01R HX  93           
CHRISTIANSTED  PTCLDY    82  75  78 E7        30.01S                  
$$

HOURLY WEATHER ROUNDUP FOR THE NEWS MEDIA
  
CITY           SKY/WX    TMP DP  RH WIND       PRES   REMARKS
ORLANDO        FAIR      81  73  76 CALM      30.04R                  
NEW YORK       MOCLDY    77  71  82 SW8       29.97F                  
NEWARK         FAIR      80  68  66 S6        29.97S                  
CHICAGO        MOCLDY    80  68  66 E8        29.98S                  
HARTFORD       LGT RAIN  73  66  78 SW10      29.95                   
BOSTON         MOCLDY    82  66  58 W14       29.93R                  
DALLAS         MOSUNNY   99  67  35 SE9       29.91S HX 103           
PHILADELPHIA   MOCLDY    83  72  69 CALM      29.99R                  
LOS ANGELES    MOSUNNY   72  61  68 W16       29.91F                  
WASHINGTON DC  MOCLDY    87  71  58 E6        29.98R HX  93